owner,sensor,date,latitude,longitude,vertical_datum,sea_water_practical_salinity,qcFlag 
DISL,ioos:station:DISL:KATA:1,2012-07-01T00:00:00Z,30.2583,-88.2131,3.738,26.28,1111122 
DISL,ioos:station:DISL:KATA:1,2012-07-01T00:30:00Z,30.2583,-88.2131,3.739,26.24,1111122 
DISL,ioos:station:DISL:KATA:1,2012-07-01T01:00:00Z,30.2583,-88.2131,3.737,26.23,1111122 
DISL,ioos:station:DISL:KATA:1,2012-07-01T01:30:00Z,30.2583,-88.2131,3.749,26.2,1111122 
DISL,ioos:station:DISL:KATA:1,2012-07-01T02:00:00Z,30.2583,-88.2131,3.783,26.22,1111122 
DISL,ioos:station:DISL:KATA:1,2012-07-01T02:30:00Z,30.2583,-88.2131,3.815,26.23,1111122 
DISL,ioos:station:DISL:KATA:1,2012-07-01T03:00:00Z,30.2583,-88.2131,3.86,26.25,1111122 
DISL,ioos:station:DISL:KATA:1,2012-07-01T03:30:00Z,30.2583,-88.2131,3.903,26.35,1111122 
DISL,ioos:station:DISL:KATA:1,2012-07-01T04:00:00Z,30.2583,-88.2131,3.943,26.49,1111122 
DISL,ioos:station:DISL:KATA:1,2012-07-01T04:30:00Z,30.2583,-88.2131,3.987,26.48,1111122 
DISL,ioos:station:DISL:KATA:1,2012-07-01T05:00:00Z,30.2583,-88.2131,4.027,26.57,1111122 
DISL,ioos:station:DISL:KATA:1,2012-07-01T05:30:00Z,30.2583,-88.2131,4.06,26.62,1111122 
DISL,ioos:station:DISL:KATA:1,2012-07-01T06:00:00Z,30.2583,-88.2131,4.093,26.67,1111122 
DISL,ioos:station:DISL:KATA:1,2012-07-01T06:30:00Z,30.2583,-88.2131,4.116,26.78,1111122 
DISL,ioos:station:DISL:KATA:1,2012-07-01T07:00:00Z,30.2583,-88.2131,4.14,26.83,1111122 
DISL,ioos:station:DISL:KATA:1,2012-07-01T07:30:00Z,30.2583,-88.2131,4.162,26.88,1111122 
DISL,ioos:station:DISL:KATA:1,2012-07-01T08:00:00Z,30.2583,-88.2131,4.184,26.94,1111122 
DISL,ioos:station:DISL:KATA:1,2012-07-01T08:30:00Z,30.2583,-88.2131,4.224,27.05,1111122 
DISL,ioos:station:DISL:KATA:1,2012-07-01T09:00:00Z,30.2583,-88.2131,4.256,27.08,1111122 
DISL,ioos:station:DISL:KATA:1,2012-07-01T09:30:00Z,30.2583,-88.2131,4.288,27.14,1111122 
DISL,ioos:station:DISL:KATA:1,2012-07-01T10:00:00Z,30.2583,-88.2131,4.319,27.16,1111122 
DISL,ioos:station:DISL:KATA:1,2012-07-01T10:30:00Z,30.2583,-88.2131,4.356,27.19,1111122 
DISL,ioos:station:DISL:KATA:1,2012-07-01T11:00:00Z,30.2583,-88.2131,4.387,27.23,1111122 
DISL,ioos:station:DISL:KATA:1,2012-07-01T11:30:00Z,30.2583,-88.2131,4.413,27.28,1111122 
DISL,ioos:station:DISL:KATA:1,2012-07-01T12:00:00Z,30.2583,-88.2131,4.422,27.29,1111122 
DISL,ioos:station:DISL:KATA:1,2012-07-01T12:30:00Z,30.2583,-88.2131,4.411,27.32,1111122 
DISL,ioos:station:DISL:KATA:1,2012-07-01T13:00:00Z,30.2583,-88.2131,4.39,27.35,1111122 
DISL,ioos:station:DISL:KATA:1,2012-07-01T13:30:00Z,30.2583,-88.2131,4.371,27.36,1111122 
DISL,ioos:station:DISL:KATA:1,2012-07-01T14:00:00Z,30.2583,-88.2131,4.343,27.35,1111122 
DISL,ioos:station:DISL:KATA:1,2012-07-01T14:30:00Z,30.2583,-88.2131,4.32,27.39,1111122 
DISL,ioos:station:DISL:KATA:1,2012-07-01T15:00:00Z,30.2583,-88.2131,4.302,27.42,1111122 
DISL,ioos:station:DISL:KATA:1,2012-07-01T15:30:00Z,30.2583,-88.2131,4.278,27.45,1111122 
DISL,ioos:station:DISL:KATA:1,2012-07-01T16:00:00Z,30.2583,-88.2131,4.252,27.43,1111122 
DISL,ioos:station:DISL:KATA:1,2012-07-01T16:30:00Z,30.2583,-88.2131,4.223,27.43,1111122 
DISL,ioos:station:DISL:KATA:1,2012-07-01T17:00:00Z,30.2583,-88.2131,4.181,27.41,1111122 
DISL,ioos:station:DISL:KATA:1,2012-07-01T17:30:00Z,30.2583,-88.2131,4.136,27.4,1111122 
DISL,ioos:station:DISL:KATA:1,2012-07-01T18:00:00Z,30.2583,-88.2131,4.084,27.31,1111122 
DISL,ioos:station:DISL:KATA:1,2012-07-01T18:30:00Z,30.2583,-88.2131,4.03,27.29,1111122 
DISL,ioos:station:DISL:KATA:1,2012-07-01T19:00:00Z,30.2583,-88.2131,3.971,27.26,1111122 
DISL,ioos:station:DISL:KATA:1,2012-07-01T19:30:00Z,30.2583,-88.2131,3.92,27.21,1111122 
DISL,ioos:station:DISL:KATA:1,2012-07-01T20:00:00Z,30.2583,-88.2131,3.858,27.15,1111122 
DISL,ioos:station:DISL:KATA:1,2012-07-01T20:30:00Z,30.2583,-88.2131,3.801,27.07,1111122 
DISL,ioos:station:DISL:KATA:1,2012-07-01T21:00:00Z,30.2583,-88.2131,3.758,26.95,1111122 
DISL,ioos:station:DISL:KATA:1,2012-07-01T21:30:00Z,30.2583,-88.2131,3.712,26.85,1111122 
DISL,ioos:station:DISL:KATA:1,2012-07-01T22:00:00Z,30.2583,-88.2131,3.667,26.74,1111122 
DISL,ioos:station:DISL:KATA:1,2012-07-01T22:30:00Z,30.2583,-88.2131,3.648,26.67,1111122 
DISL,ioos:station:DISL:KATA:1,2012-07-01T23:00:00Z,30.2583,-88.2131,3.633,26.63,1111122 
DISL,ioos:station:DISL:KATA:1,2012-07-01T23:30:00Z,30.2583,-88.2131,3.624,26.54,1111122 
DISL,ioos:station:DISL:KATA:1,2012-07-02T00:00:00Z,30.2583,-88.2131,3.626,26.5,1111122 
DISL,ioos:station:DISL:KATA:1,2012-07-02T00:30:00Z,30.2583,-88.2131,3.635,26.46,1111122 
DISL,ioos:station:DISL:KATA:1,2012-07-02T01:00:00Z,30.2583,-88.2131,3.649,26.42,1111122 
DISL,ioos:station:DISL:KATA:1,2012-07-02T01:30:00Z,30.2583,-88.2131,3.66,26.46,1111122 
DISL,ioos:station:DISL:KATA:1,2012-07-02T02:00:00Z,30.2583,-88.2131,3.677,26.47,1111122 
DISL,ioos:station:DISL:KATA:1,2012-07-02T02:30:00Z,30.2583,-88.2131,3.697,26.5,1111122 
DISL,ioos:station:DISL:KATA:1,2012-07-02T03:00:00Z,30.2583,-88.2131,3.725,26.51,1111122 
DISL,ioos:station:DISL:KATA:1,2012-07-02T03:30:00Z,30.2583,-88.2131,3.766,26.48,1111122 
DISL,ioos:station:DISL:KATA:1,2012-07-02T04:00:00Z,30.2583,-88.2131,3.809,26.51,1111122 
DISL,ioos:station:DISL:KATA:1,2012-07-02T04:30:00Z,30.2583,-88.2131,3.85,26.54,1111122 
DISL,ioos:station:DISL:KATA:1,2012-07-02T05:00:00Z,30.2583,-88.2131,3.887,26.63,1111122 
DISL,ioos:station:DISL:KATA:1,2012-07-02T05:30:00Z,30.2583,-88.2131,3.915,26.69,1111122 
DISL,ioos:station:DISL:KATA:1,2012-07-02T06:00:00Z,30.2583,-88.2131,3.948,26.72,1111122 
DISL,ioos:station:DISL:KATA:1,2012-07-02T06:30:00Z,30.2583,-88.2131,3.969,26.73,1111122 
DISL,ioos:station:DISL:KATA:1,2012-07-02T07:00:00Z,30.2583,-88.2131,3.99,26.8,1111122 
DISL,ioos:station:DISL:KATA:1,2012-07-02T07:30:00Z,30.2583,-88.2131,4.021,26.82,1111122 
DISL,ioos:station:DISL:KATA:1,2012-07-02T08:00:00Z,30.2583,-88.2131,4.038,26.86,1111122 
DISL,ioos:station:DISL:KATA:1,2012-07-02T08:30:00Z,30.2583,-88.2131,4.073,26.97,1111122 
DISL,ioos:station:DISL:KATA:1,2012-07-02T09:00:00Z,30.2583,-88.2131,4.101,27.02,1111122 
DISL,ioos:station:DISL:KATA:1,2012-07-02T09:30:00Z,30.2583,-88.2131,4.135,27.07,1111122 
DISL,ioos:station:DISL:KATA:1,2012-07-02T10:00:00Z,30.2583,-88.2131,4.167,27.1,1111122 
DISL,ioos:station:DISL:KATA:1,2012-07-02T10:30:00Z,30.2583,-88.2131,4.206,27.11,1111122 
DISL,ioos:station:DISL:KATA:1,2012-07-02T11:00:00Z,30.2583,-88.2131,4.236,27.14,1111122 
DISL,ioos:station:DISL:KATA:1,2012-07-02T11:30:00Z,30.2583,-88.2131,4.278,27.15,1111122 
DISL,ioos:station:DISL:KATA:1,2012-07-02T12:00:00Z,30.2583,-88.2131,4.313,27.16,1111122 
DISL,ioos:station:DISL:KATA:1,2012-07-02T12:30:00Z,30.2583,-88.2131,4.354,27.19,1111122 
DISL,ioos:station:DISL:KATA:1,2012-07-02T13:00:00Z,30.2583,-88.2131,4.365,27.22,1111122 
DISL,ioos:station:DISL:KATA:1,2012-07-02T13:30:00Z,30.2583,-88.2131,4.388,27.28,1111122 
DISL,ioos:station:DISL:KATA:1,2012-07-02T14:00:00Z,30.2583,-88.2131,4.367,27.31,1111122 
DISL,ioos:station:DISL:KATA:1,2012-07-02T14:30:00Z,30.2583,-88.2131,4.333,27.33,1111122 
DISL,ioos:station:DISL:KATA:1,2012-07-02T15:00:00Z,30.2583,-88.2131,4.322,27.34,1111122 
DISL,ioos:station:DISL:KATA:1,2012-07-02T15:30:00Z,30.2583,-88.2131,4.288,27.35,1111122 
DISL,ioos:station:DISL:KATA:1,2012-07-02T16:00:00Z,30.2583,-88.2131,4.246,27.35,1111122 
DISL,ioos:station:DISL:KATA:1,2012-07-02T16:30:00Z,30.2583,-88.2131,4.242,27.33,1111122 
DISL,ioos:station:DISL:KATA:1,2012-07-02T17:00:00Z,30.2583,-88.2131,4.223,27.34,1111122 
DISL,ioos:station:DISL:KATA:1,2012-07-02T17:30:00Z,30.2583,-88.2131,4.203,27.38,1111122 
DISL,ioos:station:DISL:KATA:1,2012-07-02T18:00:00Z,30.2583,-88.2131,4.173,27.4,1111122 
DISL,ioos:station:DISL:KATA:1,2012-07-02T18:30:00Z,30.2583,-88.2131,4.124,27.41,1111122 
DISL,ioos:station:DISL:KATA:1,2012-07-02T19:00:00Z,30.2583,-88.2131,4.051,27.35,1111122 
DISL,ioos:station:DISL:KATA:1,2012-07-02T19:30:00Z,30.2583,-88.2131,3.993,27.29,1111122 
DISL,ioos:station:DISL:KATA:1,2012-07-02T20:00:00Z,30.2583,-88.2131,3.933,27.21,1111122 
DISL,ioos:station:DISL:KATA:1,2012-07-02T20:30:00Z,30.2583,-88.2131,3.869,27.13,1111122 
DISL,ioos:station:DISL:KATA:1,2012-07-02T21:00:00Z,30.2583,-88.2131,3.822,27.03,1111122 
DISL,ioos:station:DISL:KATA:1,2012-07-02T21:30:00Z,30.2583,-88.2131,3.775,26.98,1111122 
DISL,ioos:station:DISL:KATA:1,2012-07-02T22:00:00Z,30.2583,-88.2131,3.785,26.92,1111122 
DISL,ioos:station:DISL:KATA:1,2012-07-02T22:30:00Z,30.2583,-88.2131,3.692,26.75,1111122 
DISL,ioos:station:DISL:KATA:1,2012-07-02T23:00:00Z,30.2583,-88.2131,3.539,26.63,1111122 
DISL,ioos:station:DISL:KATA:1,2012-07-02T23:30:00Z,30.2583,-88.2131,3.514,26.42,1111122 
DISL,ioos:station:DISL:KATA:1,2012-07-03T00:00:00Z,30.2583,-88.2131,3.57,26.41,1111122 
DISL,ioos:station:DISL:KATA:1,2012-07-03T00:30:00Z,30.2583,-88.2131,3.56,26.44,1111122 
DISL,ioos:station:DISL:KATA:1,2012-07-03T01:00:00Z,30.2583,-88.2131,3.611,26.37,1111122 
DISL,ioos:station:DISL:KATA:1,2012-07-03T01:30:00Z,30.2583,-88.2131,3.625,26.37,1111122 
DISL,ioos:station:DISL:KATA:1,2012-07-03T02:00:00Z,30.2583,-88.2131,3.657,26.36,1111122 
DISL,ioos:station:DISL:KATA:1,2012-07-03T02:30:00Z,30.2583,-88.2131,3.684,26.38,1111122 
DISL,ioos:station:DISL:KATA:1,2012-07-03T03:00:00Z,30.2583,-88.2131,3.709,26.39,1111122 
DISL,ioos:station:DISL:KATA:1,2012-07-03T03:30:00Z,30.2583,-88.2131,3.746,26.47,1111122 
DISL,ioos:station:DISL:KATA:1,2012-07-03T04:00:00Z,30.2583,-88.2131,3.775,26.71,1111122 
DISL,ioos:station:DISL:KATA:1,2012-07-03T04:30:00Z,30.2583,-88.2131,3.786,26.85,1111122 
DISL,ioos:station:DISL:KATA:1,2012-07-03T05:00:00Z,30.2583,-88.2131,3.832,26.92,1111122 
DISL,ioos:station:DISL:KATA:1,2012-07-03T05:30:00Z,30.2583,-88.2131,3.862,26.87,1111122 
DISL,ioos:station:DISL:KATA:1,2012-07-03T06:00:00Z,30.2583,-88.2131,3.881,26.9,1111122 
DISL,ioos:station:DISL:KATA:1,2012-07-03T06:30:00Z,30.2583,-88.2131,3.92,26.91,1111122 
DISL,ioos:station:DISL:KATA:1,2012-07-03T07:00:00Z,30.2583,-88.2131,3.958,26.87,1111122 
DISL,ioos:station:DISL:KATA:1,2012-07-03T07:30:00Z,30.2583,-88.2131,3.993,26.91,1111122 
DISL,ioos:station:DISL:KATA:1,2012-07-03T08:00:00Z,30.2583,-88.2131,4.03,26.93,1111122 
DISL,ioos:station:DISL:KATA:1,2012-07-03T08:30:00Z,30.2583,-88.2131,4.057,26.9,1111122 
DISL,ioos:station:DISL:KATA:1,2012-07-03T09:00:00Z,30.2583,-88.2131,4.083,26.85,1111122 
DISL,ioos:station:DISL:KATA:1,2012-07-03T09:30:00Z,30.2583,-88.2131,4.107,26.89,1111122 
DISL,ioos:station:DISL:KATA:1,2012-07-03T10:00:00Z,30.2583,-88.2131,4.136,26.89,1111122 
DISL,ioos:station:DISL:KATA:1,2012-07-03T10:30:00Z,30.2583,-88.2131,4.176,26.9,1111122 
DISL,ioos:station:DISL:KATA:1,2012-07-03T11:00:00Z,30.2583,-88.2131,4.221,26.95,1111122 
DISL,ioos:station:DISL:KATA:1,2012-07-03T11:30:00Z,30.2583,-88.2131,4.267,26.93,1111122 
DISL,ioos:station:DISL:KATA:1,2012-07-03T12:00:00Z,30.2583,-88.2131,4.309,27.04,1111122 
DISL,ioos:station:DISL:KATA:1,2012-07-03T12:30:00Z,30.2583,-88.2131,4.353,27.09,1111122 
DISL,ioos:station:DISL:KATA:1,2012-07-03T13:00:00Z,30.2583,-88.2131,4.384,27.1,1111122 
DISL,ioos:station:DISL:KATA:1,2012-07-03T13:30:00Z,30.2583,-88.2131,4.404,27.14,1111122 
DISL,ioos:station:DISL:KATA:1,2012-07-03T14:00:00Z,30.2583,-88.2131,4.404,27.21,1111122 
DISL,ioos:station:DISL:KATA:1,2012-07-03T14:30:00Z,30.2583,-88.2131,4.389,27.21,1111122 
DISL,ioos:station:DISL:KATA:1,2012-07-03T15:00:00Z,30.2583,-88.2131,4.371,27.25,1111122 
DISL,ioos:station:DISL:KATA:1,2012-07-03T15:30:00Z,30.2583,-88.2131,4.342,27.22,1111122 
DISL,ioos:station:DISL:KATA:1,2012-07-03T16:00:00Z,30.2583,-88.2131,4.321,27.37,1111122 
DISL,ioos:station:DISL:KATA:1,2012-07-03T16:30:00Z,30.2583,-88.2131,4.303,27.42,1111122 
DISL,ioos:station:DISL:KATA:1,2012-07-03T17:00:00Z,30.2583,-88.2131,4.292,27.47,1111122 
DISL,ioos:station:DISL:KATA:1,2012-07-03T17:30:00Z,30.2583,-88.2131,4.282,27.47,1111122 
DISL,ioos:station:DISL:KATA:1,2012-07-03T18:00:00Z,30.2583,-88.2131,4.262,27.48,1111122 
DISL,ioos:station:DISL:KATA:1,2012-07-03T18:30:00Z,30.2583,-88.2131,4.222,27.48,1111122 
DISL,ioos:station:DISL:KATA:1,2012-07-03T19:00:00Z,30.2583,-88.2131,4.175,27.43,1111122 
DISL,ioos:station:DISL:KATA:1,2012-07-03T19:30:00Z,30.2583,-88.2131,4.119,27.37,1111122 
DISL,ioos:station:DISL:KATA:1,2012-07-03T20:00:00Z,30.2583,-88.2131,4.052,27.31,1111122 
DISL,ioos:station:DISL:KATA:1,2012-07-03T20:30:00Z,30.2583,-88.2131,3.995,27.25,1111122 
DISL,ioos:station:DISL:KATA:1,2012-07-03T21:00:00Z,30.2583,-88.2131,3.936,27.19,1111122 
DISL,ioos:station:DISL:KATA:1,2012-07-03T21:30:00Z,30.2583,-88.2131,3.887,27.11,1111122 
DISL,ioos:station:DISL:KATA:1,2012-07-03T22:00:00Z,30.2583,-88.2131,3.817,26.99,1111122 
DISL,ioos:station:DISL:KATA:1,2012-07-03T22:30:00Z,30.2583,-88.2131,3.764,26.86,1111122 
DISL,ioos:station:DISL:KATA:1,2012-07-03T23:00:00Z,30.2583,-88.2131,3.708,26.58,1111122 
DISL,ioos:station:DISL:KATA:1,2012-07-03T23:30:00Z,30.2583,-88.2131,3.639,26.39,1111122 
DISL,ioos:station:DISL:KATA:1,2012-07-04T00:00:00Z,30.2583,-88.2131,3.621,26.38,1111122 
DISL,ioos:station:DISL:KATA:1,2012-07-04T00:30:00Z,30.2583,-88.2131,3.635,26.25,1111122 
DISL,ioos:station:DISL:KATA:1,2012-07-04T01:00:00Z,30.2583,-88.2131,3.622,26.2,1111122 
DISL,ioos:station:DISL:KATA:1,2012-07-04T01:30:00Z,30.2583,-88.2131,3.619,26.24,1111122 
DISL,ioos:station:DISL:KATA:1,2012-07-04T02:00:00Z,30.2583,-88.2131,3.626,26.25,1111122 
DISL,ioos:station:DISL:KATA:1,2012-07-04T02:30:00Z,30.2583,-88.2131,3.631,26.21,1111122 
DISL,ioos:station:DISL:KATA:1,2012-07-04T03:00:00Z,30.2583,-88.2131,3.634,26.21,1111122 
DISL,ioos:station:DISL:KATA:1,2012-07-04T03:30:00Z,30.2583,-88.2131,3.64,26.34,1111122 
DISL,ioos:station:DISL:KATA:1,2012-07-04T04:00:00Z,30.2583,-88.2131,3.647,26.25,1111122 
DISL,ioos:station:DISL:KATA:1,2012-07-04T04:30:00Z,30.2583,-88.2131,3.671,26.5,1111122 
DISL,ioos:station:DISL:KATA:1,2012-07-04T05:00:00Z,30.2583,-88.2131,3.717,26.51,1111122 
DISL,ioos:station:DISL:KATA:1,2012-07-04T05:30:00Z,30.2583,-88.2131,3.789,26.52,1111122 
DISL,ioos:station:DISL:KATA:1,2012-07-04T06:00:00Z,30.2583,-88.2131,3.835,26.55,1111122 
DISL,ioos:station:DISL:KATA:1,2012-07-04T06:30:00Z,30.2583,-88.2131,3.882,26.85,1111122 
DISL,ioos:station:DISL:KATA:1,2012-07-04T07:00:00Z,30.2583,-88.2131,3.922,27.07,1111122 
DISL,ioos:station:DISL:KATA:1,2012-07-04T07:30:00Z,30.2583,-88.2131,3.952,27.03,1111122 
DISL,ioos:station:DISL:KATA:1,2012-07-04T08:00:00Z,30.2583,-88.2131,3.981,26.9,1111122 
DISL,ioos:station:DISL:KATA:1,2012-07-04T08:30:00Z,30.2583,-88.2131,4.003,26.9,1111122 
DISL,ioos:station:DISL:KATA:1,2012-07-04T09:00:00Z,30.2583,-88.2131,4.025,26.73,1111122 
DISL,ioos:station:DISL:KATA:1,2012-07-04T09:30:00Z,30.2583,-88.2131,4.046,26.75,1111122 
DISL,ioos:station:DISL:KATA:1,2012-07-04T10:00:00Z,30.2583,-88.2131,4.076,26.79,1111122 
DISL,ioos:station:DISL:KATA:1,2012-07-04T10:30:00Z,30.2583,-88.2131,4.11,26.84,1111122 
DISL,ioos:station:DISL:KATA:1,2012-07-04T11:00:00Z,30.2583,-88.2131,4.159,26.97,1111122 
DISL,ioos:station:DISL:KATA:1,2012-07-04T11:30:00Z,30.2583,-88.2131,4.198,27.12,1111122 
DISL,ioos:station:DISL:KATA:1,2012-07-04T12:00:00Z,30.2583,-88.2131,4.237,27.19,1111122 
DISL,ioos:station:DISL:KATA:1,2012-07-04T12:30:00Z,30.2583,-88.2131,4.277,27.51,1111122 
DISL,ioos:station:DISL:KATA:1,2012-07-04T13:00:00Z,30.2583,-88.2131,4.306,28.27,1111122 
DISL,ioos:station:DISL:KATA:1,2012-07-04T13:30:00Z,30.2583,-88.2131,4.345,29.26,1111122 
DISL,ioos:station:DISL:KATA:1,2012-07-04T14:00:00Z,30.2583,-88.2131,4.385,29.47,1111122 
DISL,ioos:station:DISL:KATA:1,2012-07-04T14:30:00Z,30.2583,-88.2131,4.368,29.49,1111122 
DISL,ioos:station:DISL:KATA:1,2012-07-04T15:00:00Z,30.2583,-88.2131,4.371,29.56,1111122 
DISL,ioos:station:DISL:KATA:1,2012-07-04T15:30:00Z,30.2583,-88.2131,4.367,29.72,1111122 
DISL,ioos:station:DISL:KATA:1,2012-07-04T16:00:00Z,30.2583,-88.2131,4.352,29.74,1111122 
DISL,ioos:station:DISL:KATA:1,2012-07-04T16:30:00Z,30.2583,-88.2131,4.341,29.8,1111122 
DISL,ioos:station:DISL:KATA:1,2012-07-04T17:00:00Z,30.2583,-88.2131,4.299,29.72,1111122 
DISL,ioos:station:DISL:KATA:1,2012-07-04T17:30:00Z,30.2583,-88.2131,4.312,29.77,1111122 
DISL,ioos:station:DISL:KATA:1,2012-07-04T18:00:00Z,30.2583,-88.2131,4.326,29.72,1111122 
DISL,ioos:station:DISL:KATA:1,2012-07-04T18:30:00Z,30.2583,-88.2131,4.318,29.79,1111122 
DISL,ioos:station:DISL:KATA:1,2012-07-04T19:00:00Z,30.2583,-88.2131,4.242,29.74,1111122 
DISL,ioos:station:DISL:KATA:1,2012-07-04T19:30:00Z,30.2583,-88.2131,4.197,29.65,1111122 
DISL,ioos:station:DISL:KATA:1,2012-07-04T20:00:00Z,30.2583,-88.2131,4.165,29.34,1111122 
DISL,ioos:station:DISL:KATA:1,2012-07-04T20:30:00Z,30.2583,-88.2131,4.12,28.81,1111122 
DISL,ioos:station:DISL:KATA:1,2012-07-04T21:00:00Z,30.2583,-88.2131,4.074,28.64,1111122 
DISL,ioos:station:DISL:KATA:1,2012-07-04T21:30:00Z,30.2583,-88.2131,4.005,28.3,1111122 
DISL,ioos:station:DISL:KATA:1,2012-07-04T22:00:00Z,30.2583,-88.2131,3.933,28.15,1111122 
DISL,ioos:station:DISL:KATA:1,2012-07-04T22:30:00Z,30.2583,-88.2131,3.862,27.96,1111122 
DISL,ioos:station:DISL:KATA:1,2012-07-04T23:00:00Z,30.2583,-88.2131,3.811,27.89,1111122 
DISL,ioos:station:DISL:KATA:1,2012-07-04T23:30:00Z,30.2583,-88.2131,3.755,27.67,1111122 
DISL,ioos:station:DISL:KATA:1,2012-07-05T00:00:00Z,30.2583,-88.2131,3.699,27.52,1111122 
DISL,ioos:station:DISL:KATA:1,2012-07-05T00:30:00Z,30.2583,-88.2131,3.676,27.34,1111122 
DISL,ioos:station:DISL:KATA:1,2012-07-05T01:00:00Z,30.2583,-88.2131,3.665,27.22,1111122 
DISL,ioos:station:DISL:KATA:1,2012-07-05T01:30:00Z,30.2583,-88.2131,3.658,27.08,1111122 
DISL,ioos:station:DISL:KATA:1,2012-07-05T02:00:00Z,30.2583,-88.2131,3.658,27.04,1111122 
DISL,ioos:station:DISL:KATA:1,2012-07-05T02:30:00Z,30.2583,-88.2131,3.658,27.0,1111122 
DISL,ioos:station:DISL:KATA:1,2012-07-05T03:00:00Z,30.2583,-88.2131,3.662,26.98,1111122 
DISL,ioos:station:DISL:KATA:1,2012-07-05T03:30:00Z,30.2583,-88.2131,3.673,26.95,1111122 
DISL,ioos:station:DISL:KATA:1,2012-07-05T04:00:00Z,30.2583,-88.2131,3.685,26.95,1111122 
DISL,ioos:station:DISL:KATA:1,2012-07-05T04:30:00Z,30.2583,-88.2131,3.707,27.01,1111122 
DISL,ioos:station:DISL:KATA:1,2012-07-05T05:00:00Z,30.2583,-88.2131,3.725,27.06,1111122 
DISL,ioos:station:DISL:KATA:1,2012-07-05T05:30:00Z,30.2583,-88.2131,3.773,27.07,1111122 
DISL,ioos:station:DISL:KATA:1,2012-07-05T06:00:00Z,30.2583,-88.2131,3.811,27.08,1111122 
DISL,ioos:station:DISL:KATA:1,2012-07-05T06:30:00Z,30.2583,-88.2131,3.848,27.79,1111122 
DISL,ioos:station:DISL:KATA:1,2012-07-05T07:00:00Z,30.2583,-88.2131,3.875,28.02,1111122 
DISL,ioos:station:DISL:KATA:1,2012-07-05T07:30:00Z,30.2583,-88.2131,3.908,28.09,1111122 
DISL,ioos:station:DISL:KATA:1,2012-07-05T08:00:00Z,30.2583,-88.2131,3.945,28.0,1111122 
DISL,ioos:station:DISL:KATA:1,2012-07-05T08:30:00Z,30.2583,-88.2131,3.969,27.91,1111122 
DISL,ioos:station:DISL:KATA:1,2012-07-05T09:00:00Z,30.2583,-88.2131,3.987,27.92,1111122 
DISL,ioos:station:DISL:KATA:1,2012-07-05T09:30:00Z,30.2583,-88.2131,4.004,27.89,1111122 
DISL,ioos:station:DISL:KATA:1,2012-07-05T10:00:00Z,30.2583,-88.2131,4.014,28.12,1111122 
DISL,ioos:station:DISL:KATA:1,2012-07-05T10:30:00Z,30.2583,-88.2131,4.027,28.26,1111122 
DISL,ioos:station:DISL:KATA:1,2012-07-05T11:00:00Z,30.2583,-88.2131,4.044,28.46,1111122 
DISL,ioos:station:DISL:KATA:1,2012-07-05T11:30:00Z,30.2583,-88.2131,4.064,28.68,1111122 
DISL,ioos:station:DISL:KATA:1,2012-07-05T12:00:00Z,30.2583,-88.2131,4.093,28.9,1111122 
DISL,ioos:station:DISL:KATA:1,2012-07-05T12:30:00Z,30.2583,-88.2131,4.126,29.08,1111122 
DISL,ioos:station:DISL:KATA:1,2012-07-05T13:00:00Z,30.2583,-88.2131,4.167,29.23,1111122 
DISL,ioos:station:DISL:KATA:1,2012-07-05T13:30:00Z,30.2583,-88.2131,4.21,29.3,1111122 
DISL,ioos:station:DISL:KATA:1,2012-07-05T14:00:00Z,30.2583,-88.2131,4.248,29.33,1111122 
DISL,ioos:station:DISL:KATA:1,2012-07-05T14:30:00Z,30.2583,-88.2131,4.283,29.25,1111122 
DISL,ioos:station:DISL:KATA:1,2012-07-05T15:00:00Z,30.2583,-88.2131,4.305,29.32,1111122 
DISL,ioos:station:DISL:KATA:1,2012-07-05T15:30:00Z,30.2583,-88.2131,4.33,29.29,1111122 
DISL,ioos:station:DISL:KATA:1,2012-07-05T16:00:00Z,30.2583,-88.2131,4.332,29.24,1111122 
DISL,ioos:station:DISL:KATA:1,2012-07-05T16:30:00Z,30.2583,-88.2131,4.329,29.24,1111122 
DISL,ioos:station:DISL:KATA:1,2012-07-05T17:00:00Z,30.2583,-88.2131,4.313,29.2,1111122 
DISL,ioos:station:DISL:KATA:1,2012-07-05T17:30:00Z,30.2583,-88.2131,4.293,29.18,1111122 
DISL,ioos:station:DISL:KATA:1,2012-07-05T18:00:00Z,30.2583,-88.2131,4.274,29.07,1111122 
DISL,ioos:station:DISL:KATA:1,2012-07-05T18:30:00Z,30.2583,-88.2131,4.259,29.02,1111122 
DISL,ioos:station:DISL:KATA:1,2012-07-05T19:00:00Z,30.2583,-88.2131,4.247,29.0,1111122 
DISL,ioos:station:DISL:KATA:1,2012-07-05T19:30:00Z,30.2583,-88.2131,4.226,29.16,1111122 
DISL,ioos:station:DISL:KATA:1,2012-07-05T20:00:00Z,30.2583,-88.2131,4.205,29.1,1111122 
DISL,ioos:station:DISL:KATA:1,2012-07-05T20:30:00Z,30.2583,-88.2131,4.168,29.25,1111122 
DISL,ioos:station:DISL:KATA:1,2012-07-05T21:00:00Z,30.2583,-88.2131,4.122,29.27,1111122 
DISL,ioos:station:DISL:KATA:1,2012-07-05T21:30:00Z,30.2583,-88.2131,4.071,29.26,1111122 
DISL,ioos:station:DISL:KATA:1,2012-07-05T22:00:00Z,30.2583,-88.2131,4.025,29.15,1111122 
DISL,ioos:station:DISL:KATA:1,2012-07-05T22:30:00Z,30.2583,-88.2131,3.977,29.09,1111122 
DISL,ioos:station:DISL:KATA:1,2012-07-05T23:00:00Z,30.2583,-88.2131,3.939,28.97,1111122 
DISL,ioos:station:DISL:KATA:1,2012-07-05T23:30:00Z,30.2583,-88.2131,3.9,28.89,1111122 
DISL,ioos:station:DISL:KATA:1,2012-07-06T00:00:00Z,30.2583,-88.2131,3.862,28.82,1111122 
DISL,ioos:station:DISL:KATA:1,2012-07-06T00:30:00Z,30.2583,-88.2131,3.835,28.79,1111122 
DISL,ioos:station:DISL:KATA:1,2012-07-06T01:00:00Z,30.2583,-88.2131,3.819,28.73,1111122 
DISL,ioos:station:DISL:KATA:1,2012-07-06T01:30:00Z,30.2583,-88.2131,3.811,28.71,1111122 
DISL,ioos:station:DISL:KATA:1,2012-07-06T02:00:00Z,30.2583,-88.2131,3.805,28.65,1111122 
DISL,ioos:station:DISL:KATA:1,2012-07-06T02:30:00Z,30.2583,-88.2131,3.813,28.53,1111122 
DISL,ioos:station:DISL:KATA:1,2012-07-06T03:00:00Z,30.2583,-88.2131,3.812,28.5,1111122 
DISL,ioos:station:DISL:KATA:1,2012-07-06T03:30:00Z,30.2583,-88.2131,3.807,28.45,1111122 
DISL,ioos:station:DISL:KATA:1,2012-07-06T04:00:00Z,30.2583,-88.2131,3.809,28.31,1111122 
DISL,ioos:station:DISL:KATA:1,2012-07-06T04:30:00Z,30.2583,-88.2131,3.809,28.26,1111122 
DISL,ioos:station:DISL:KATA:1,2012-07-06T05:00:00Z,30.2583,-88.2131,3.824,28.25,1111122 
DISL,ioos:station:DISL:KATA:1,2012-07-06T05:30:00Z,30.2583,-88.2131,3.845,28.3,1111122 
DISL,ioos:station:DISL:KATA:1,2012-07-06T06:00:00Z,30.2583,-88.2131,3.855,28.28,1111122 
DISL,ioos:station:DISL:KATA:1,2012-07-06T06:30:00Z,30.2583,-88.2131,3.881,28.26,1111122 
DISL,ioos:station:DISL:KATA:1,2012-07-06T07:00:00Z,30.2583,-88.2131,3.91,28.28,1111122 
DISL,ioos:station:DISL:KATA:1,2012-07-06T07:30:00Z,30.2583,-88.2131,3.935,28.32,1111122 
DISL,ioos:station:DISL:KATA:1,2012-07-06T08:00:00Z,30.2583,-88.2131,3.973,28.42,1111122 
DISL,ioos:station:DISL:KATA:1,2012-07-06T08:30:00Z,30.2583,-88.2131,3.992,28.48,1111122 
DISL,ioos:station:DISL:KATA:1,2012-07-06T09:00:00Z,30.2583,-88.2131,3.996,28.47,1111122 
DISL,ioos:station:DISL:KATA:1,2012-07-06T09:30:00Z,30.2583,-88.2131,3.995,28.54,1111122 
DISL,ioos:station:DISL:KATA:1,2012-07-06T10:00:00Z,30.2583,-88.2131,4.0,28.58,1111122 
DISL,ioos:station:DISL:KATA:1,2012-07-06T10:30:00Z,30.2583,-88.2131,3.998,28.61,1111122 
DISL,ioos:station:DISL:KATA:1,2012-07-06T11:00:00Z,30.2583,-88.2131,4.024,28.62,1111122 
DISL,ioos:station:DISL:KATA:1,2012-07-06T11:30:00Z,30.2583,-88.2131,4.03,28.66,1111122 
DISL,ioos:station:DISL:KATA:1,2012-07-06T12:00:00Z,30.2583,-88.2131,4.043,28.71,1111122 
DISL,ioos:station:DISL:KATA:1,2012-07-06T12:30:00Z,30.2583,-88.2131,4.055,28.74,1111122 
DISL,ioos:station:DISL:KATA:1,2012-07-06T13:00:00Z,30.2583,-88.2131,4.087,28.74,1111122 
DISL,ioos:station:DISL:KATA:1,2012-07-06T13:30:00Z,30.2583,-88.2131,4.123,28.76,1111122 
DISL,ioos:station:DISL:KATA:1,2012-07-06T14:00:00Z,30.2583,-88.2131,4.156,28.77,1111122 